Location: B?dargowo
(53.3916°N, 14.4413°E)
Time: 06:16:37
(UTC+00:00)

Lacrosse 5 - Pass Details

Date: 05 February 2023
Orbit: 714 x 724 km, 57.0° (Epoch: 09 March)

Event Time Altitude Azimuth Distance (km) Brightness Sun altitude
Rises 18:24:46 0° 251° (WSW) 3,134 6.3 -22.8°
Reaches altitude 10° 18:27:09 10° 253° (WSW) 2,216 5.3 -23.2°
Maximum altitude 18:32:16 77° 340° (NNW) 750 1.9 -23.9°
Enters shadow 18:33:04 62° 43° (NE) 821 1.9 -24.1°
